Time,TemperatureF,DewpointF,PressureIn,WindDirection,WindDirectionDegrees,WindSpeedMPH,WindSpeedGustMPH,Humidity,HourlyPrecipIn,Conditions,Clouds,dailyrainin,SolarRadiationWatts/m^2,SoftwareType,DateUTC
2013-01-16 00:03:00,29.0,29.0,-100.00,North,0,6.0,15.0,99,0.00,,,0.01,0.000000,,2013-01-16 05:03:00,
2013-01-16 00:33:00,29.0,29.0,-100.00,North,0,7.0,14.0,100,0.00,,,0.01,0.000000,,2013-01-16 05:33:00,
2013-01-16 00:42:00,29.0,29.0,-100.00,North,0,7.0,14.0,100,0.00,,,0.01,0.000000,,2013-01-16 05:42:00,
2013-01-16 00:53:00,29.0,29.0,-100.00,North,0,7.0,14.0,100,0.00,,,0.01,0.000000,,2013-01-16 05:53:00,
2013-01-16 01:03:00,29.0,29.0,-100.00,North,0,7.0,14.0,100,0.00,,,0.01,0.000000,,2013-01-16 06:03:00,
2013-01-16 01:33:00,29.0,29.0,-100.00,North,0,8.0,15.0,100,0.00,,,0.01,0.000000,,2013-01-16 06:33:00,
2013-01-16 01:43:00,29.0,29.0,-100.00,North,0,8.0,15.0,100,0.00,,,0.01,0.000000,,2013-01-16 06:43:00,
2013-01-16 01:53:00,29.0,29.0,-100.00,North,0,8.0,15.0,100,0.00,,,0.01,0.000000,,2013-01-16 06:53:00,
2013-01-16 02:02:00,29.0,29.0,-100.00,North,0,8.0,15.0,100,0.00,,,0.01,0.000000,,2013-01-16 07:02:00,
2013-01-16 02:33:00,29.0,29.0,-100.00,North,0,8.0,15.0,100,0.00,,,0.01,0.000000,,2013-01-16 07:33:00,
2013-01-16 02:42:00,29.0,29.0,-100.00,North,0,8.0,15.0,100,0.00,,,0.01,0.000000,,2013-01-16 07:42:00,
2013-01-16 02:52:00,29.0,29.0,-100.00,North,0,8.0,15.0,100,0.00,,,0.01,0.000000,,2013-01-16 07:52:00,
2013-01-16 03:03:00,29.0,29.0,-100.00,North,0,8.0,15.0,100,0.00,,,0.01,0.000000,,2013-01-16 08:03:00,
2013-01-16 03:33:00,29.0,29.0,-100.00,North,0,7.0,17.0,100,0.00,,,0.01,0.000000,,2013-01-16 08:33:00,
2013-01-16 03:42:00,29.0,29.0,-100.00,North,0,7.0,17.0,100,0.00,,,0.01,0.000000,,2013-01-16 08:42:00,
2013-01-16 03:53:00,29.0,29.0,-100.00,North,0,7.0,17.0,100,0.00,,,0.01,0.000000,,2013-01-16 08:53:00,
2013-01-16 04:02:00,29.0,29.0,-100.00,North,0,7.0,17.0,100,0.00,,,0.01,0.000000,,2013-01-16 09:02:00,
2013-01-16 04:33:00,29.0,29.0,-100.00,North,0,6.0,13.0,100,0.00,,,0.01,0.000000,,2013-01-16 09:33:00,
2013-01-16 04:43:00,29.0,29.0,-100.00,North,0,6.0,13.0,100,0.00,,,0.01,0.000000,,2013-01-16 09:43:00,
2013-01-16 04:53:00,29.0,29.0,-100.00,North,0,6.0,13.0,100,0.00,,,0.01,0.000000,,2013-01-16 09:53:00,
2013-01-16 05:02:00,29.0,29.0,-100.00,North,0,6.0,13.0,100,0.00,,,0.01,0.000000,,2013-01-16 10:02:00,
2013-01-16 05:33:00,29.0,29.0,-100.00,North,0,6.0,13.0,100,0.00,,,0.01,0.000000,,2013-01-16 10:33:00,
2013-01-16 05:43:00,29.0,29.0,-100.00,North,0,6.0,13.0,100,0.00,,,0.01,0.000000,,2013-01-16 10:43:00,
2013-01-16 05:53:00,29.0,29.0,-100.00,North,0,6.0,13.0,100,0.00,,,0.01,0.000000,,2013-01-16 10:53:00,
2013-01-16 06:02:00,29.0,29.0,-100.00,North,0,6.0,13.0,100,0.00,,,0.01,0.000000,,2013-01-16 11:02:00,
2013-01-16 06:33:00,29.0,29.0,-100.00,North,0,6.0,13.0,100,0.00,,,0.01,0.000000,,2013-01-16 11:33:00,
2013-01-16 06:43:00,29.0,29.0,-100.00,North,0,6.0,13.0,100,0.00,,,0.01,0.000000,,2013-01-16 11:43:00,
2013-01-16 06:53:00,29.0,29.0,-100.00,North,0,6.0,13.0,100,0.00,,,0.01,0.000000,,2013-01-16 11:53:00,
2013-01-16 07:03:00,29.0,29.0,-100.00,North,0,6.0,13.0,100,0.00,,,0.01,0.000000,,2013-01-16 12:03:00,
2013-01-16 07:33:00,29.0,29.0,-100.00,North,0,7.0,15.0,100,0.00,,,0.01,0.000000,,2013-01-16 12:33:00,
2013-01-16 07:43:00,29.0,29.0,-100.00,North,0,7.0,15.0,100,0.00,,,0.01,0.000000,,2013-01-16 12:43:00,
2013-01-16 07:53:00,29.0,29.0,-100.00,North,0,7.0,15.0,100,0.00,,,0.01,0.000000,,2013-01-16 12:53:00,
2013-01-16 08:03:00,29.0,29.0,-100.00,North,0,7.0,15.0,100,0.00,,,0.01,0.000000,,2013-01-16 13:03:00,
2013-01-16 08:33:00,29.0,29.0,-100.00,North,0,5.0,12.0,100,0.00,,,0.01,2.000000,,2013-01-16 13:33:00,
2013-01-16 08:43:00,29.0,29.0,-100.00,North,0,5.0,12.0,100,0.00,,,0.01,2.000000,,2013-01-16 13:43:00,
2013-01-16 08:53:00,29.0,29.0,-100.00,North,0,5.0,12.0,100,0.00,,,0.01,2.000000,,2013-01-16 13:53:00,
2013-01-16 09:03:00,29.0,29.0,-100.00,North,0,5.0,12.0,100,0.00,,,0.01,2.000000,,2013-01-16 14:03:00,
2013-01-16 09:33:00,30.0,30.0,-100.00,North,0,5.0,10.0,100,0.00,,,0.01,15.000000,,2013-01-16 14:33:00,
2013-01-16 09:43:00,30.0,30.0,-100.00,North,0,5.0,10.0,100,0.00,,,0.01,15.000000,,2013-01-16 14:43:00,
2013-01-16 09:53:00,30.0,30.0,-100.00,North,0,5.0,10.0,100,0.00,,,0.01,15.000000,,2013-01-16 14:53:00,
2013-01-16 10:03:00,30.0,30.0,-100.00,North,0,5.0,10.0,100,0.00,,,0.01,15.000000,,2013-01-16 15:03:00,
2013-01-16 10:33:00,33.0,33.0,-100.00,North,0,4.0,10.0,100,0.00,,,0.01,14.000000,,2013-01-16 15:33:00,
2013-01-16 10:43:00,33.0,33.0,-100.00,North,0,4.0,10.0,100,0.00,,,0.01,14.000000,,2013-01-16 15:43:00,
2013-01-16 10:53:00,33.0,33.0,-100.00,North,0,4.0,10.0,100,0.00,,,0.01,14.000000,,2013-01-16 15:53:00,
2013-01-16 11:04:00,33.0,33.0,-100.00,North,0,4.0,10.0,100,0.00,,,0.01,14.000000,,2013-01-16 16:04:00,
2013-01-16 11:33:00,34.0,34.0,-100.00,North,0,5.0,12.0,100,0.01,,,0.02,40.000000,,2013-01-16 16:33:00,
2013-01-16 11:43:00,34.0,34.0,-100.00,North,0,5.0,12.0,100,0.01,,,0.02,40.000000,,2013-01-16 16:43:00,
2013-01-16 11:53:00,34.0,34.0,-100.00,North,0,5.0,12.0,100,0.01,,,0.02,40.000000,,2013-01-16 16:53:00,
2013-01-16 12:03:00,34.0,34.0,-100.00,North,0,5.0,12.0,100,0.01,,,0.02,40.000000,,2013-01-16 17:03:00,
2013-01-16 12:33:00,32.0,32.0,-100.00,North,0,7.0,14.0,100,0.07,,,0.09,53.000000,,2013-01-16 17:33:00,
2013-01-16 12:44:00,32.0,32.0,-100.00,North,0,7.0,14.0,100,0.07,,,0.09,53.000000,,2013-01-16 17:44:00,
2013-01-16 12:53:00,32.0,32.0,-100.00,North,0,7.0,14.0,100,0.07,,,0.09,53.000000,,2013-01-16 17:53:00,
2013-01-16 13:03:00,32.0,32.0,-100.00,North,0,7.0,14.0,100,0.07,,,0.09,53.000000,,2013-01-16 18:03:00,
2013-01-16 13:33:00,31.0,31.0,-100.00,North,0,7.0,17.0,100,0.02,,,0.11,58.000000,,2013-01-16 18:33:00,
2013-01-16 13:43:00,31.0,31.0,-100.00,North,0,7.0,17.0,100,0.02,,,0.11,58.000000,,2013-01-16 18:43:00,
2013-01-16 13:53:00,31.0,31.0,-100.00,North,0,7.0,17.0,100,0.02,,,0.11,58.000000,,2013-01-16 18:53:00,
2013-01-16 14:03:00,31.0,31.0,-100.00,North,0,7.0,17.0,100,0.02,,,0.11,58.000000,,2013-01-16 19:03:00,
2013-01-16 14:33:00,31.0,31.0,-100.00,North,0,6.0,15.0,100,0.01,,,0.12,81.000000,,2013-01-16 19:33:00,
2013-01-16 14:43:00,31.0,31.0,-100.00,North,0,6.0,15.0,100,0.01,,,0.12,81.000000,,2013-01-16 19:43:00,
2013-01-16 14:53:00,31.0,31.0,-100.00,North,0,6.0,15.0,100,0.01,,,0.12,81.000000,,2013-01-16 19:53:00,
2013-01-16 15:03:00,31.0,31.0,-100.00,North,0,6.0,15.0,100,0.01,,,0.12,81.000000,,2013-01-16 20:03:00,
2013-01-16 15:33:00,31.0,31.0,-100.00,North,0,7.0,14.0,100,0.01,,,0.13,56.000000,,2013-01-16 20:33:00,
2013-01-16 15:43:00,31.0,31.0,-100.00,North,0,7.0,14.0,100,0.01,,,0.13,56.000000,,2013-01-16 20:43:00,
2013-01-16 15:53:00,31.0,31.0,-100.00,North,0,7.0,14.0,100,0.01,,,0.13,56.000000,,2013-01-16 20:53:00,
2013-01-16 16:03:00,31.0,31.0,-100.00,North,0,7.0,14.0,100,0.01,,,0.13,56.000000,,2013-01-16 21:03:00,
2013-01-16 16:33:00,31.0,31.0,-100.00,North,0,8.0,16.0,100,0.00,,,0.13,35.000000,,2013-01-16 21:33:00,
2013-01-16 16:43:00,31.0,31.0,-100.00,North,0,8.0,16.0,100,0.00,,,0.13,35.000000,,2013-01-16 21:43:00,
2013-01-16 16:53:00,31.0,31.0,-100.00,North,0,8.0,16.0,100,0.00,,,0.13,35.000000,,2013-01-16 21:53:00,
2013-01-16 17:03:00,31.0,31.0,-100.00,North,0,8.0,16.0,100,0.00,,,0.13,35.000000,,2013-01-16 22:03:00,
2013-01-16 17:33:00,30.0,30.0,-100.00,North,0,7.0,14.0,100,0.00,,,0.13,14.000000,,2013-01-16 22:33:00,
2013-01-16 17:43:00,30.0,30.0,-100.00,North,0,7.0,14.0,100,0.00,,,0.13,14.000000,,2013-01-16 22:43:00,
2013-01-16 17:53:00,30.0,30.0,-100.00,North,0,7.0,14.0,100,0.00,,,0.13,14.000000,,2013-01-16 22:53:00,
2013-01-16 18:03:00,30.0,30.0,-100.00,North,0,7.0,14.0,100,0.00,,,0.13,14.000000,,2013-01-16 23:03:00,
2013-01-16 18:33:00,29.0,29.0,-100.00,North,0,8.0,17.0,100,0.00,,,0.13,1.000000,,2013-01-16 23:33:00,
2013-01-16 18:43:00,29.0,29.0,-100.00,North,0,8.0,17.0,100,0.00,,,0.13,1.000000,,2013-01-16 23:43:00,
2013-01-16 18:53:00,29.0,29.0,-100.00,North,0,8.0,17.0,100,0.00,,,0.13,1.000000,,2013-01-16 23:53:00,
2013-01-16 19:02:00,29.0,29.0,-100.00,North,0,8.0,17.0,100,0.00,,,0.13,1.000000,,2013-01-17 00:02:00,
2013-01-16 19:33:00,29.0,29.0,-100.00,North,0,8.0,18.0,100,0.00,,,0.13,0.000000,,2013-01-17 00:33:00,
2013-01-16 19:42:00,29.0,29.0,-100.00,North,0,8.0,18.0,100,0.00,,,0.13,0.000000,,2013-01-17 00:42:00,
2013-01-16 19:53:00,29.0,29.0,-100.00,North,0,8.0,18.0,100,0.00,,,0.13,0.000000,,2013-01-17 00:53:00,
2013-01-16 20:02:00,29.0,29.0,-100.00,North,0,8.0,18.0,100,0.00,,,0.13,0.000000,,2013-01-17 01:02:00,
2013-01-16 20:33:00,28.0,27.0,-100.00,North,0,9.0,19.0,95,0.00,,,0.12,0.000000,,2013-01-17 01:33:00,
2013-01-16 20:43:00,28.0,27.0,-100.00,North,0,9.0,19.0,95,0.00,,,0.12,0.000000,,2013-01-17 01:43:00,
2013-01-16 20:53:00,28.0,27.0,-100.00,North,0,9.0,19.0,95,0.00,,,0.12,0.000000,,2013-01-17 01:53:00,
2013-01-16 21:02:00,28.0,27.0,-100.00,North,0,9.0,19.0,95,0.00,,,0.12,0.000000,,2013-01-17 02:02:00,
2013-01-16 21:32:00,28.0,26.0,-100.00,North,0,9.0,19.0,91,0.00,,,0.12,0.000000,,2013-01-17 02:32:00,
2013-01-16 21:43:00,28.0,26.0,-100.00,North,0,9.0,19.0,91,0.00,,,0.12,0.000000,,2013-01-17 02:43:00,
2013-01-16 21:52:00,28.0,26.0,-100.00,North,0,9.0,19.0,91,0.00,,,0.12,0.000000,,2013-01-17 02:52:00,
2013-01-16 22:03:00,28.0,26.0,-100.00,North,0,9.0,19.0,91,0.00,,,0.12,0.000000,,2013-01-17 03:03:00,
2013-01-16 22:33:00,28.0,26.0,-100.00,North,0,8.0,17.0,93,0.00,,,0.12,0.000000,,2013-01-17 03:33:00,
2013-01-16 22:43:00,28.0,26.0,-100.00,North,0,8.0,17.0,93,0.00,,,0.12,0.000000,,2013-01-17 03:43:00,
2013-01-16 22:53:00,28.0,26.0,-100.00,North,0,8.0,17.0,93,0.00,,,0.12,0.000000,,2013-01-17 03:53:00,
2013-01-16 23:02:00,28.0,26.0,-100.00,North,0,8.0,17.0,93,0.00,,,0.12,0.000000,,2013-01-17 04:02:00,
2013-01-16 23:33:00,28.0,26.0,-100.00,North,0,9.0,19.0,92,0.00,,,0.12,0.000000,,2013-01-17 04:33:00,
2013-01-16 23:43:00,28.0,26.0,-100.00,North,0,9.0,19.0,92,0.00,,,0.12,0.000000,,2013-01-17 04:43:00,
2013-01-16 23:53:00,28.0,26.0,-100.00,North,0,9.0,19.0,92,0.00,,,0.12,0.000000,,2013-01-17 04:53:00,